Temp
-14 -14 -14 -13 -12 -13 -12 -12 -12 -12 -12 -12 -12 -12 -11 -11 -11 -11 -10 -10 -10 -9 -9 -9 -8 -8 -7 -7 -7 -7 -7 -8 -8 -7 -7 -6 -6 -7 -7 -6 -7 -7 -7 -6 -6 -6 -7 -6 -6 -6 -5 -6 -6 -7
-14 -14 -14 -13 -13 -13 -12 -12 -12 -12 -12 -12 -12 -12 -11 -11 -11 -11 -10 -10 -10 -10 -9 -9 -8 -7 -7 -7 -7 -7 -7 -7 -8 -7 -7 -6 -6 -7 -7 -7 -6 -7 -6 -6 -6 -6 -6 -6 -6 -6 -6 -6 -6 -7
-14 -14 -13 -13 -13 -12 -12 -12 -12 -12 -12 -11 -12 -12 -11 -10 -10 -10 -10 -10 -9 -9 -9 -9 -8 -8 -8 -8 -7 -7 -8 -7 -6 -7 -7 -7 -7 -7 -7 -7 -7 -7 -7 -7 -6 -6 -6 -6 -6 -6 -6 -6 -7 -7
-13 -13 -13 -13 -12 -12 -11 -11 -11 -11 -11 -11 -11 -11 -10 -10 -10 -10 -10 -9 -9 -9 -9 -9 -8 -8 -7 -8 -8 -8 -7 -7 -7 -7 -7 -7 -7 -7 -7 -6 -6 -7 -7 -7 -6 -6 -6 -6 -6 -6 -7 -7 -7 -7
-13 -13 -13 -12 -11 -10 -11 -11 -10 -10 -11 -11 -11 -10 -10 -10 -10 -10 -10 -10 -9 -9 -9 -9 -9 -9 -9 -9 -9 -8 -7 -7 -7 -7 -7 -7 -7 -7 -7 -7 -7 -7 -6 -6 -6 -6 -6 -6 -6 -7 -7 -7 -7 -8
-13 -13 -12 -11 -11 -10 -10 -10 -11 -11 -11 -10 -10 -10 -10 -10 -10 -10 -10 -10 -9 -10 -10 -10 -10 -10 -10 -9 -9 -8 -8 -8 -8 -8 -7 -7 -7 -7 -7 -7 -6 -6 -7 -7 -7 -7 -7 -7 -7 -7 -7 -7 -8 -8
-12 -11 -11 -11 -11 -10 -10 -10 -10 -10 -10 -10 -10 -10 -10 -10 -10 -10 -10 -9 -9 -9 -10 -10 -10 -9 -9 -9 -8 -8 -8 -8 -8 -8 -8 -7 -7 -7 -7 -7 -6 -7 -7 -7 -7 -7 -7 -7 -7 -7 -7 -8 -8 -8
-12 -11 -11 -11 -11 -11 -11 -10 -10 -10 -10 -10 -10 -10 -10 -10 -10 -10 -10 -9 -10 -10 -10 -9 -9 -9 -9 -8 -8 -8 -8 -8 -8 -8 -8 -7 -8 -8 -7 -7 -7 -7 -7 -7 -7 -7 -7 -7 -7 -7 -8 -8 -8 -8
-11 -12 -12 -12 -11 -11 -12 -12 -11 -11 -10 -10 -11 -10 -10 -10 -10 -10 -10 -10 -10 -10 -10 -9 -9 -9 -9 -8 -8 -9 -8 -8 -8 -8 -8 -8 -8 -8 -7 -7 -8 -8 -7 -7 -7 -7 -7 -7 -8 -8 -8 -8 -9 -9
-12 -12 -12 -12 -12 -12 -12 -12 -12 -11 -11 -11 -10 -10 -10 -10 -10 -10 -11 -11 -10 -10 -9 -9 -8 -8 -9 -8 -9 -9 -8 -8 -9 -8 -8 -8 -8 -8 -8 -8 -8 -8 -8 -7 -7 -7 -7 -8 -8 -8 -8 -9 -9 -9
-12 -12 -13 -13 -12 -12 -12 -12 -11 -11 -11 -10 -10 -10 -10 -10 -11 -11 -10 -10 -9 -9 -9 -9 -8 -8 -9 -9 -8 -8 -9 -9 -9 -9 -9 -9 -8 -8 -9 -9 -9 -9 -8 -8 -8 -8 -8 -9 -9 -9 -9 -9 -9 -9
-12 -13 -12 -12 -12 -12 -12 -12 -12 -12 -11 -11 -11 -11 -11 -11 -10 -10 -10 -10 -9 -9 -9 -9 -9 -9 -9 -9 -9 -9 -9 -9 -9 -9 -9 -9 -8 -9 -9 -9 -9 -9 -9 -9 -9 -9 -9 -9 -9 -9 -10 -10 -10 -10
-12 -12 -12 -12 -12 -12 -12 -12 -12 -12 -11 -11 -11 -11 -10 -10 -10 -10 -9 -9 -9 -9 -9 -9 -9 -9 -9 -9 -9 -9 -9 -9 -9 -9 -9 -9 -8 -8 -9 -9 -9 -9 -10 -10 -10 -10 -10 -10 -10 -10 -10 -10 -10 -10
-12 -12 -13 -13 -13 -13 -12 -12 -12 -12 -11 -11 -11 -10 -10 -10 -10 -9 -9 -8 -9 -9 -9 -9 -9 -9 -9 -9 -9 -9 -9 -9 -9 -9 -9 -8 -8 -8 -9 -9 -9 -10 -10 -11 -11 -11 -11 -11 -11 -11 -10 -11 -11 -11
-12 -12 -13 -13 -13 -13 -13 -13 -12 -12 -11 -10 -10 -9 -10 -10 -10 -9 -9 -9 -9 -9 -9 -9 -9 -9 -9 -9 -9 -9 -9 -9 -9 -9 -8 -8 -8 -9 -9 -9 -10 -10 -11 -11 -11 -11 -11 -11 -11 -11 -11 -11 -11 -11
-12 -12 -13 -13 -13 -13 -13 -12 -12 -11 -10 -10 -10 -10 -10 -10 -10 -10 -9 -9 -9 -10 -10 -10 -9 -9 -9 -9 -9 -9 -9 -9 -8 -8 -8 -8 -9 -9 -9 -10 -10 -11 -11 -11 -11 -11 -11 -11 -11 -11 -11 -11 -11 -11
-12 -12 -12 -12 -13 -12 -13 -12 -11 -10 -10 -11 -11 -10 -10 -9 -10 -10 -10 -10 -10 -10 -10 -10 -9 -9 -10 -10 -9 -9 -9 -9 -8 -8 -8 -9 -9 -9 -10 -10 -11 -11 -11 -11 -11 -12 -11 -12 -12 -11 -11 -11 -11 -12
-12 -12 -12 -12 -12 -12 -12 -11 -11 -10 -11 -12 -11 -11 -11 -10 -11 -10 -10 -10 -10 -10 -10 -9 -9 -10 -10 -10 -9 -9 -9 -9 -9 -8 -8 -9 -9 -9 -10 -11 -11 -11 -11 -12 -12 -12 -12 -12 -12 -12 -12 -11 -11 -12
-13 -13 -13 -12 -12 -12 -12 -12 -11 -11 -12 -12 -11 -11 -11 -11 -11 -11 -11 -11 -10 -10 -10 -10 -10 -10 -9 -9 -9 -9 -9 -9 -9 -9 -9 -9 -9 -9 -10 -10 -11 -11 -11 -11 -11 -11 -12 -12 -12 -12 -12 -12 -12 -12
-13 -13 -13 -13 -13 -13 -12 -12 -11 -11 -12 -12 -12 -11 -11 -12 -11 -11 -11 -11 -11 -10 -10 -10 -10 -9 -9 -9 -9 -9 -9 -9 -9 -9 -9 -9 -9 -9 -10 -10 -10 -10 -11 -11 -11 -11 -11 -11 -11 -12 -12 -12 -13 -13
-13 -14 -14 -13 -13 -12 -11 -12 -11 -11 -11 -12 -12 -12 -12 -11 -11 -11 -10 -10 -11 -10 -10 -10 -10 -9 -9 -9 -9 -9 -9 -9 -9 -9 -9 -9 -9 -9 -10 -10 -10 -10 -10 -11 -11 -11 -11 -12 -12 -12 -12 -12 -13 -13
-13 -12 -12 -12 -12 -11 -12 -11 -11 -12 -12 -12 -12 -11 -11 -11 -11 -10 -10 -11 -11 -10 -10 -10 -10 -9 -10 -10 -10 -10 -10 -10 -9 -9 -9 -9 -9 -10 -10 -10 -10 -10 -10 -10 -11 -11 -12 -12 -12 -12 -13 -13 -13 -13
-13 -12 -12 -12 -12 -12 -12 -12 -12 -12 -12 -12 -11 -11 -10 -10 -10 -10 -10 -10 -10 -10 -10 -10 -10 -10 -10 -10 -10 -10 -10 -10 -10 -9 -9 -9 -9 -10 -10 -10 -10 -10 -10 -11 -11 -11 -12 -12 -12 -13 -13 -14 -14 -14
-12 -12 -12 -12 -12 -12 -12 -12 -12 -11 -12 -11 -11 -11 -11 -10 -10 -10 -10 -10 -10 -10 -10 -10 -10 -10 -10 -10 -10 -10 -10 -10 -10 -10 -10 -10 -9 -9 -10 -10 -10 -10 -10 -10 -11 -11 -12 -12 -13 -13 -14 -14 -15 -15
-12 -12 -12 -12 -12 -13 -12 -12 -12 -12 -11 -11 -11 -11 -11 -11 -10 -10 -10 -10 -10 -10 -10 -10 -10 -10 -10 -10 -10 -10 -10 -10 -10 -10 -10 -10 -9 -9 -10 -10 -10 -10 -11 -11 -11 -11 -12 -12 -13 -14 -14 -14 -15 -15
-12 -12 -12 -13 -13 -13 -13 -13 -12 -12 -12 -12 -11 -11 -11 -11 -11 -11 -11 -11 -11 -11 -10 -10 -10 -10 -10 -10 -10 -10 -10 -10 -10 -10 -10 -10 -10 -10 -10 -10 -10 -11 -11 -11 -12 -12 -12 -13 -14 -14 -14 -15 -15 -16
-13 -13 -13 -13 -13 -13 -13 -13 -13 -13 -13 -12 -12 -11 -11 -11 -11 -11 -11 -11 -11 -11 -11 -10 -10 -10 -10 -10 -11 -11 -11 -11 -11 -11 -10 -10 -10 -10 -10 -10 -10 -11 -11 -12 -12 -13 -13 -14 -14 -14 -15 -15 -16 -16
-13 -13 -13 -13 -13 -13 -13 -13 -13 -13 -13 -13 -12 -12 -11 -11 -11 -11 -11 -11 -11 -11 -11 -11 -11 -11 -11 -11 -11 -11 -11 -11 -11 -11 -11 -11 -11 -11 -11 -11 -11 -11 -12 -12 -13 -13 -13 -14 -14 -15 -15 -16 -16 -17
-13 -13 -13 -13 -13 -13 -13 -13 -13 -13 -13 -13 -13 -12 -12 -12 -12 -12 -12 -12 -12 -12 -12 -12 -12 -12 -12 -12 -12 -12 -12 -12 -11 -11 -11 -11 -11 -11 -11 -11 -11 -12 -12 -13 -13 -13 -14 -14 -15 -15 -16 -16 -16 -17
-14 -14 -14 -14 -14 -14 -13 -14 -13 -13 -13 -13 -13 -13 -13 -12 -12 -12 -12 -12 -12 -12 -12 -12 -12 -12 -12 -12 -12 -12 -12 -12 -12 -12 -12 -11 -11 -12 -12 -12 -12 -12 -12 -13 -13 -14 -15 -15 -15 -16 -16 -17 -17 -17
-14 -14 -14 -14 -14 -14 -14 -14 -14 -14 -13 -13 -13 -13 -13 -13 -13 -13 -13 -12 -12 -12 -12 -12 -12 -12 -12 -12 -12 -12 -12 -12 -12 -12 -12 -12 -12 -12 -12 -12 -12 -13 -13 -13 -14 -15 -15 -16 -16 -16 -17 -17 -18 -18
-14 -14 -14 -14 -14 -14 -14 -14 -14 -14 -14 -14 -14 -13 -13 -13 -13 -13 -12 -12 -12 -12 -12 -12 -12 -12 -12 -12 -12 -12 -12 -12 -12 -12 -12 -12 -12 -12 -12 -13 -13 -13 -14 -14 -15 -15 -16 -16 -17 -17 -17 -18 -18 -18
-14 -14 -14 -15 -14 -14 -14 -14 -14 -14 -14 -14 -13 -13 -13 -13 -13 -12 -12 -12 -12 -12 -12 -12 -12 -12 -12 -12 -12 -12 -12 -12 -12 -12 -12 -13 -13 -13 -13 -13 -14 -14 -15 -15 -16 -16 -17 -17 -17 -18 -18 -18 -19 -19
Height
2818 2819 2821 2821 2822 2824 2826 2830 2835 2840 2845 2850 2856 2864 2871 2879 2886 2892 2898 2904 2909 2912 2916 2917 2918 2920 2922 2925 2929 2932 2937 2941 2945 2949 2953 2955 2958 2962 2965 2966 2967 2970 2975 2976 2979 2980 2979 2977 2980 2983 2983 2981 2981 2982
2814 2816 2817 2818 2819 2821 2824 2827 2832 2837 2842 2847 2854 2861 2868 2875 2882 2888 2895 2901 2906 2911 2913 2912 2910 2912 2915 2920 2925 2930 2934 2937 2942 2946 2950 2952 2955 2957 2960 2962 2965 2969 2969 2971 2973 2973 2973 2974 2976 2978 2979 2978 2977 2977
2812 2813 2813 2814 2815 2818 2821 2825 2829 2834 2839 2846 2853 2859 2864 2870 2879 2888 2895 2899 2904 2908 2911 2910 2907 2910 2914 2917 2923 2929 2935 2939 2940 2944 2948 2950 2952 2955 2956 2959 2961 2963 2965 2966 2969 2969 2970 2973 2974 2975 2975 2975 2975 2975
2809 2810 2810 2810 2810 2812 2815 2818 2824 2830 2837 2845 2852 2857 2864 2874 2880 2888 2893 2899 2903 2906 2909 2910 2906 2906 2911 2917 2923 2930 2935 2938 2941 2944 2946 2947 2950 2953 2955 2956 2958 2961 2962 2963 2965 2966 2968 2970 2971 2972 2973 2974 2975 2975
2808 2807 2806 2805 2803 2805 2808 2811 2818 2827 2836 2844 2851 2859 2867 2875 2881 2887 2892 2897 2903 2908 2908 2910 2911 2912 2916 2921 2927 2932 2935 2937 2939 2942 2944 2946 2949 2952 2952 2954 2955 2956 2958 2960 2962 2964 2966 2967 2968 2970 2971 2973 2974 2975
2806 2806 2805 2806 2804 2808 2813 2818 2824 2831 2839 2846 2855 2863 2869 2875 2879 2885 2892 2898 2902 2906 2909 2912 2915 2917 2920 2924 2928 2931 2933 2935 2937 2940 2943 2945 2947 2950 2950 2951 2953 2955 2956 2958 2960 2960 2962 2964 2966 2968 2970 2972 2974 2976
2806 2805 2809 2811 2812 2815 2820 2825 2831 2838 2845 2852 2859 2865 2871 2877 2883 2888 2893 2897 2903 2907 2910 2913 2916 2919 2921 2924 2927 2930 2933 2935 2938 2940 2943 2945 2947 2948 2949 2950 2952 2953 2954 2956 2957 2959 2961 2962 2964 2966 2969 2972 2973 2975
2809 2812 2815 2817 2820 2823 2827 2831 2837 2843 2849 2855 2862 2868 2875 2881 2886 2891 2896 2900 2905 2908 2911 2914 2916 2920 2922 2925 2928 2931 2934 2936 2939 2941 2943 2944 2946 2947 2948 2950 2950 2951 2952 2954 2955 2957 2959 2961 2963 2965 2968 2970 2973 2975
2815 2819 2821 2824 2827 2830 2834 2838 2842 2847 2852 2859 2866 2872 2877 2883 2889 2895 2899 2903 2907 2912 2912 2913 2915 2919 2923 2926 2929 2933 2935 2937 2939 2940 2942 2945 2945 2946 2947 2948 2949 2949 2951 2952 2953 2955 2956 2959 2961 2964 2967 2969 2972 2974
2821 2824 2826 2830 2834 2837 2841 2845 2849 2854 2859 2864 2871 2876 2881 2886 2892 2897 2903 2906 2909 2910 2912 2913 2917 2919 2924 2926 2930 2934 2935 2937 2939 2941 2942 2943 2943 2944 2945 2946 2947 2947 2948 2950 2951 2953 2954 2956 2959 2962 2965 2968 2970 2973
2827 2830 2833 2836 2840 2844 2848 2851 2855 2860 2864 2869 2872 2877 2884 2889 2895 2900 2904 2907 2910 2911 2912 2914 2919 2921 2925 2928 2930 2933 2934 2936 2938 2940 2941 2941 2941 2943 2944 2944 2945 2945 2946 2947 2949 2950 2952 2955 2958 2961 2963 2966 2969 2971
2833 2836 2839 2842 2846 2849 2853 2857 2861 2866 2870 2874 2878 2884 2889 2894 2898 2902 2904 2907 2908 2910 2912 2916 2919 2922 2925 2928 2931 2933 2934 2935 2936 2938 2939 2938 2938 2940 2941 2941 2941 2942 2943 2944 2946 2948 2950 2953 2956 2959 2961 2964 2966 2969
2840 2843 2846 2848 2851 2855 2859 2863 2867 2870 2874 2878 2883 2888 2893 2896 2898 2900 2902 2904 2906 2908 2912 2914 2918 2921 2926 2928 2930 2932 2932 2934 2935 2936 2936 2935 2936 2937 2938 2938 2939 2939 2940 2942 2944 2946 2949 2951 2954 2957 2959 2961 2964 2967
2845 2848 2852 2855 2858 2861 2865 2868 2872 2876 2880 2883 2887 2890 2893 2895 2897 2898 2900 2903 2906 2908 2913 2916 2919 2922 2925 2927 2929 2930 2932 2933 2934 2934 2934 2934 2934 2935 2936 2937 2938 2939 2940 2942 2944 2946 2948 2951 2953 2955 2958 2960 2962 2964
2850 2853 2857 2861 2865 2868 2871 2875 2879 2883 2886 2888 2890 2891 2892 2894 2896 2899 2902 2905 2908 2912 2916 2918 2922 2923 2925 2927 2928 2929 2930 2931 2931 2932 2932 2933 2933 2934 2934 2935 2937 2938 2939 2942 2944 2946 2948 2949 2952 2954 2956 2958 2960 2962
2854 2857 2861 2865 2869 2872 2876 2880 2884 2887 2889 2889 2891 2891 2893 2895 2898 2901 2904 2907 2910 2913 2917 2920 2922 2924 2925 2926 2927 2927 2928 2929 2930 2930 2931 2931 2932 2932 2933 2933 2935 2937 2939 2941 2943 2945 2946 2948 2950 2953 2955 2957 2959 2961
2861 2863 2867 2870 2874 2878 2881 2885 2888 2889 2890 2891 2894 2895 2896 2898 2900 2903 2906 2909 2912 2915 2917 2920 2921 2923 2924 2925 2926 2926 2927 2928 2928 2929 2929 2929 2930 2931 2931 2932 2934 2936 2938 2940 2942 2943 2945 2947 2949 2951 2953 2954 2956 2958
2868 2870 2872 2875 2879 2882 2886 2888 2890 2891 2893 2895 2897 2897 2899 2900 2902 2904 2907 2910 2913 2915 2918 2920 2921 2922 2923 2924 2925 2926 2926 2927 2928 2928 2928 2929 2929 2929 2930 2931 2933 2935 2937 2938 2940 2941 2943 2944 2946 2948 2950 2952 2954 2956
2873 2875 2876 2879 2882 2886 2889 2892 2893 2894 2896 2898 2899 2900 2902 2903 2905 2908 2910 2913 2916 2918 2920 2920 2921 2922 2922 2923 2924 2925 2927 2928 2928 2928 2929 2929 2930 2930 2931 2932 2933 2934 2935 2937 2938 2940 2941 2943 2945 2946 2948 2950 2952 2955
2878 2879 2881 2884 2886 2889 2892 2894 2895 2896 2897 2899 2901 2902 2904 2905 2908 2910 2913 2915 2917 2918 2919 2920 2920 2921 2922 2924 2925 2926 2927 2928 2928 2929 2930 2930 2930 2931 2932 2933 2933 2934 2935 2936 2937 2938 2940 2942 2943 2945 2946 2948 2951 2953
2883 2884 2887 2889 2891 2893 2893 2894 2895 2896 2897 2899 2901 2903 2905 2907 2909 2911 2914 2915 2916 2916 2917 2919 2920 2921 2922 2924 2926 2927 2928 2928 2929 2930 2930 2931 2931 2932 2932 2932 2933 2933 2934 2934 2935 2936 2937 2939 2940 2941 2944 2946 2948 2951
2888 2889 2891 2892 2893 2894 2895 2895 2896 2897 2899 2900 2902 2904 2906 2908 2910 2912 2914 2915 2916 2916 2917 2919 2920 2921 2922 2924 2926 2927 2928 2929 2929 2930 2931 2931 2932 2932 2932 2932 2932 2932 2932 2932 2933 2934 2934 2935 2937 2938 2940 2943 2945 2947
2891 2892 2893 2894 2895 2895 2898 2897 2898 2899 2901 2903 2905 2906 2908 2909 2911 2912 2913 2914 2915 2916 2917 2918 2919 2920 2922 2923 2925 2926 2927 2928 2929 2929 2930 2930 2931 2930 2930 2930 2930 2930 2930 2930 2930 2931 2931 2932 2934 2935 2937 2939 2941 2943
2894 2894 2894 2895 2895 2896 2898 2898 2900 2901 2902 2904 2906 2907 2909 2910 2912 2912 2913 2914 2915 2915 2916 2917 2918 2919 2921 2922 2923 2924 2925 2926 2927 2928 2928 2928 2928 2928 2928 2928 2928 2927 2927 2927 2928 2928 2929 2930 2931 2932 2934 2936 2938 2939
2897 2897 2897 2895 2896 2897 2898 2899 2901 2902 2904 2905 2907 2908 2910 2911 2912 2912 2913 2914 2914 2915 2915 2916 2917 2918 2919 2919 2920 2921 2922 2923 2924 2925 2925 2926 2925 2925 2925 2925 2925 2925 2925 2925 2925 2926 2926 2927 2928 2929 2931 2933 2934 2935
2896 2897 2897 2896 2897 2898 2899 2900 2901 2903 2904 2906 2907 2909 2910 2911 2911 2911 2912 2913 2913 2914 2914 2914 2915 2915 2916 2916 2917 2918 2918 2918 2920 2921 2921 2921 2921 2921 2921 2921 2921 2921 2921 2921 2922 2922 2923 2924 2925 2926 2928 2929 2931 2931
2897 2897 2897 2897 2898 2898 2899 2900 2902 2903 2904 2905 2907 2908 2909 2910 2910 2911 2912 2912 2912 2912 2912 2912 2912 2912 2913 2913 2914 2915 2915 2915 2916 2917 2917 2917 2917 2917 2918 2917 2917 2917 2917 2918 2918 2919 2920 2921 2922 2924 2925 2926 2927 2928
2897 2898 2898 2899 2898 2898 2899 2900 2901 2902 2903 2904 2906 2907 2908 2909 2910 2911 2911 2911 2911 2912 2912 2912 2912 2912 2912 2912 2912 2912 2913 2913 2913 2914 2914 2914 2914 2914 2914 2914 2914 2914 2914 2914 2915 2916 2917 2918 2919 2920 2922 2923 2923 2923
2896 2897 2898 2898 2898 2898 2899 2900 2900 2901 2902 2903 2904 2905 2907 2908 2909 2910 2910 2910 2911 2911 2912 2912 2912 2912 2912 2912 2912 2912 2912 2912 2912 2912 2911 2911 2912 2912 2911 2911 2912 2912 2912 2912 2912 2913 2914 2915 2916 2917 2917 2918 2918 2918
2894 2894 2895 2895 2896 2896 2897 2898 2899 2900 2901 2902 2903 2904 2905 2906 2907 2908 2909 2910 2910 2911 2911 2911 2912 2912 2912 2912 2912 2912 2911 2911 2911 2911 2910 2910 2910 2910 2909 2909 2909 2909 2909 2909 2909 2910 2911 2911 2912 2913 2913 2914 2913 2913
2891 2892 2892 2892 2893 2895 2895 2896 2897 2898 2899 2900 2901 2902 2903 2904 2905 2906 2907 2908 2908 2909 2909 2910 2910 2911 2911 2911 2910 2910 2910 2910 2909 2909 2908 2908 2908 2907 2907 2906 2906 2906 2906 2906 2907 2907 2907 2908 2908 2908 2908 2908 2908 2908
2887 2888 2889 2890 2891 2892 2893 2894 2895 2896 2897 2898 2899 2900 2901 2901 2902 2903 2904 2905 2905 2906 2906 2906 2907 2907 2907 2907 2907 2907 2906 2906 2905 2905 2905 2904 2904 2904 2904 2903 2903 2903 2903 2903 2903 2903 2903 2904 2904 2904 2904 2904 2904 2903
2885 2885 2886 2887 2888 2889 2891 2892 2892 2893 2894 2895 2895 2896 2897 2897 2898 2899 2899 2900 2901 2901 2901 2901 2901 2901 2901 2901 2901 2901 2901 2900 2900 2900 2899 2899 2899 2899 2899 2899 2899 2899 2899 2899 2899 2899 2899 2900 2900 2900 2899 2899 2899 2899
Wind_Speed
14 14 19 6 5 13 16 18 18 21 21 25 31 31 33 34 30 28 28 30 28 20 15 18 22 25 28 29 29 23 28 28 24 21 15 9 10 15 13 15 16 25 18 16 18 10 7 13 13 12 9 9 11 12
13 16 10 9 11 17 19 16 17 18 24 23 30 34 32 29 31 27 31 26 24 25 12 13 18 22 20 22 30 23 31 31 19 17 11 12 9 14 14 14 15 18 19 16 15 16 9 12 17 9 9 11 9 8
12 10 11 13 15 18 20 21 23 20 25 29 32 32 35 29 30 28 24 22 15 17 19 6 16 20 19 20 26 33 20 24 19 21 15 12 6 11 13 12 21 20 22 13 15 16 14 11 11 10 8 6 5 3
10 11 12 14 18 20 22 25 24 25 30 30 33 31 26 34 28 27 29 22 17 14 8 6 21 22 27 24 23 18 14 18 17 21 17 15 12 14 16 12 20 18 18 21 19 13 15 13 11 8 7 8 6 5
8 9 12 16 12 15 16 19 27 31 30 37 34 35 34 28 22 23 29 24 24 12 12 12 11 17 14 26 24 16 12 16 16 22 16 15 16 12 14 13 16 20 20 20 17 18 15 10 10 10 10 10 10 9
4 8 10 25 23 23 20 25 31 33 31 39 37 35 29 22 17 34 27 24 21 10 19 15 14 12 14 15 17 15 13 13 18 16 14 12 9 7 14 14 13 13 9 10 8 10 12 10 11 12 12 13 12 11
4 5 27 23 24 29 30 30 33 34 33 32 32 25 22 24 28 32 17 25 22 18 16 16 13 14 16 17 16 16 19 19 16 11 9 10 9 10 12 10 9 10 9 8 9 9 11 9 9 12 14 15 14 12
10 26 24 24 23 23 25 28 32 31 31 29 26 24 27 30 22 21 22 22 23 20 12 7 15 17 17 19 21 20 17 15 14 10 8 7 12 10 6 9 7 8 10 9 8 11 11 11 13 15 15 15 14 13
28 21 21 23 23 23 26 27 29 28 30 33 37 33 30 26 26 30 28 25 19 9 5 11 18 22 19 20 19 18 15 12 10 10 11 10 8 5 5 4 5 6 8 10 9 9 13 14 14 16 15 16 15 13
23 23 24 23 26 27 26 27 29 32 34 38 34 33 33 36 35 30 24 18 11 6 6 13 22 16 20 20 18 12 9 7 7 11 10 8 10 9 5 4 4 6 8 10 10 10 13 17 16 16 15 15 14 13
22 21 22 22 26 27 26 26 26 29 31 35 28 32 33 34 31 16 10 7 7 5 8 18 18 17 17 14 15 7 6 6 4 6 7 5 6 7 6 5 6 8 10 11 12 10 12 14 14 16 16 15 14 15
20 21 22 22 24 25 23 23 22 23 30 28 37 37 33 19 9 5 9 8 6 6 12 14 16 15 17 14 8 6 5 6 4 8 5 4 7 6 5 7 9 10 10 12 12 12 15 16 16 16 16 16 16 16
22 23 22 24 23 24 26 28 26 25 34 40 34 21 12 5 5 7 7 8 8 14 15 17 21 20 17 10 6 5 5 4 6 6 3 6 4 4 5 8 9 9 7 9 10 10 13 15 15 13 14 18 19 17
19 20 21 23 26 33 31 28 28 32 35 21 10 7 5 5 5 9 11 13 13 16 17 16 19 11 12 8 5 5 5 6 5 5 4 2 4 7 9 8 7 6 6 7 7 9 11 13 14 13 14 16 17 17
18 21 26 28 28 27 26 25 27 30 22 12 8 4 5 9 15 17 13 11 16 17 17 15 12 8 11 4 3 4 5 4 5 4 1 6 6 6 7 8 9 9 9 9 8 9 11 13 13 12 12 14 17 18
19 26 28 26 28 30 29 24 28 14 9 5 4 10 14 16 18 16 14 16 19 17 17 12 7 5 4 3 4 4 6 4 3 5 5 5 5 6 7 9 12 13 13 11 9 9 10 11 12 12 12 13 16 17
21 23 24 27 26 28 25 22 12 10 5 7 10 12 13 14 18 17 16 19 18 16 16 8 5 4 5 4 5 6 4 4 4 5 5 5 5 6 7 8 11 15 14 12 11 10 11 11 13 12 12 12 15 15
18 21 22 23 24 24 24 16 8 7 14 14 10 9 8 11 18 17 21 19 19 19 16 6 4 5 5 6 5 4 5 5 3 4 5 5 4 3 6 8 9 11 12 11 11 12 13 14 15 14 13 13 15 15
14 16 17 20 25 22 18 12 6 7 11 11 9 9 10 11 19 19 18 17 14 12 9 5 3 8 7 8 5 7 6 6 5 4 5 4 4 3 4 5 6 8 9 9 9 10 12 13 13 13 12 13 14 16
12 15 16 14 17 18 9 9 8 9 11 9 8 8 12 15 22 20 17 12 8 9 9 7 6 9 7 6 8 7 6 6 6 5 4 4 3 2 2 3 4 6 7 9 10 9 9 9 10 12 13 14 14 15
17 16 15 12 13 6 6 9 7 7 11 10 9 10 15 15 19 19 15 9 6 8 10 9 4 5 8 11 9 8 8 7 6 5 4 3 2 1 1 3 4 5 6 8 9 10 9 10 11 12 12 13 14 13
15 15 13 11 10 7 5 7 8 10 11 14 13 13 13 12 11 11 10 9 8 8 8 7 8 6 11 12 11 9 8 6 5 4 2 2 1 2 3 4 4 6 7 9 9 9 10 11 11 11 12 13 14 14
10 9 8 6 3 4 9 13 13 12 11 13 13 12 11 10 9 8 5 6 5 4 4 5 8 9 11 12 11 11 9 8 6 4 1 1 4 5 6 6 5 6 6 8 7 7 10 11 12 12 13 14 14 14
8 8 5 2 2 4 12 9 10 11 13 12 11 10 9 8 8 6 5 5 4 4 5 5 6 8 11 12 13 12 11 10 9 9 8 8 8 8 8 7 6 7 8 8 7 6 8 10 12 13 13 14 14 13
3 3 3 3 4 8 8 11 11 9 12 11 10 8 8 6 5 4 3 2 3 3 4 6 7 7 7 9 11 13 15 14 13 12 11 12 12 11 10 9 8 8 9 9 8 8 9 11 12 12 13 13 13 12
1 2 2 2 5 5 6 9 9 10 10 10 9 7 7 5 3 2 3 3 3 3 4 5 6 8 9 9 9 8 11 13 14 13 13 14 13 12 12 11 11 9 9 10 10 9 10 11 12 13 13 13 13 13
3 4 5 4 3 4 5 7 7 9 10 7 8 7 6 4 4 4 3 2 2 2 1 2 3 4 5 7 7 7 8 8 9 11 12 12 12 12 12 11 11 9 9 9 9 10 10 10 11 12 12 12 12 13
4 3 4 4 1 5 5 5 6 7 9 7 10 7 4 5 5 3 2 2 3 2 1 2 2 2 0 1 2 2 3 4 6 7 8 8 8 7 8 8 7 7 7 7 8 9 9 9 9 11 12 12 13 14
4 3 3 3 2 5 9 8 5 5 8 11 10 9 8 6 5 5 4 4 4 3 2 2 3 3 2 2 1 0 1 2 1 1 3 4 4 4 5 6 6 6 6 6 7 7 8 9 10 11 12 13 14 14
9 10 11 9 7 7 8 9 6 5 5 7 7 8 9 9 10 9 7 5 4 4 5 4 2 2 2 3 3 2 2 2 2 5 6 5 4 4 5 5 5 6 7 7 7 7 8 10 11 12 12 13 13 13
11 7 7 9 10 9 7 7 9 9 9 9 9 10 11 10 10 10 10 8 7 6 8 8 7 7 6 6 7 7 8 7 7 7 9 9 8 7 7 8 7 7 7 8 8 9 10 10 11 12 12 13 13 13
14 13 8 9 9 10 11 10 8 9 11 11 10 10 10 11 13 14 13 13 12 12 12 12 13 13 14 14 14 14 13 13 13 13 12 12 12 11 11 10 10 9 10 10 9 9 10 11 11 12 12 12 12 11
5 5 12 14 12 11 11 12 14 14 14 14 15 16 16 16 17 15 14 15 16 16 17 17 16 16 17 17 17 16 16 16 16 16 15 14 14 14 13 13 12 12 11 11 10 10 11 11 12 12 12 12 11 11
Wind_Direction
258 249 245 269 238 215 205 201 201 197 202 202 196 195 193 193 194 198 204 217 214 202 213 236 245 237 231 228 227 230 198 178 170 177 186 160 179 191 208 211 207 194 197 207 217 223 242 220 219 216 244 260 265 259
239 242 220 230 231 214 203 210 192 202 202 198 189 187 186 194 189 199 196 204 218 217 238 274 240 217 229 224 220 205 187 175 185 188 187 189 181 187 198 183 199 199 205 203 205 214 234 221 221 228 253 269 275 269
232 254 234 244 233 222 222 216 209 206 195 188 182 186 188 187 181 169 185 191 185 203 229 239 179 206 203 216 213 191 177 198 202 191 184 189 186 182 185 188 193 206 209 215 214 220 216 204 212 238 250 240 234 232
239 258 254 258 241 238 235 228 214 195 191 186 182 180 164 165 174 180 180 173 170 174 171 168 110 112 167 163 159 163 195 194 206 195 190 202 196 192 200 208 208 209 207 220 229 220 209 217 228 228 207 196 171 148
272 275 273 264 249 165 144 147 170 176 172 178 166 151 158 163 169 178 178 185 186 184 166 131 120 120 117 144 165 182 181 187 200 193 195 204 217 193 197 203 205 210 224 228 234 237 237 229 213 194 182 172 162 147
302 276 289 124 121 138 137 141 153 163 166 151 155 161 165 172 172 151 157 171 181 183 148 136 140 140 148 164 179 189 194 196 184 185 195 201 207 185 189 204 215 211 214 215 221 201 194 200 192 186 177 173 167 159
231 86 122 118 116 131 141 141 139 145 148 154 162 165 170 161 156 156 163 151 159 163 149 143 144 155 157 157 171 172 161 156 166 168 176 181 173 200 202 213 214 211 210 206 204 205 201 196 194 184 182 179 172 171
100 127 127 111 111 121 128 139 149 157 161 163 164 158 153 163 158 164 156 160 149 146 132 147 153 150 160 161 161 164 159 166 176 172 186 172 180 194 214 213 199 206 216 216 217 216 210 202 196 187 188 184 182 179
126 124 116 116 121 124 126 133 136 143 148 148 145 141 150 162 157 136 136 134 134 130 142 163 163 152 156 156 162 167 170 173 168 181 184 179 189 212 229 212 216 230 234 234 236 223 213 207 201 193 192 192 185 181
124 118 120 122 127 128 131 136 133 136 144 149 138 139 143 145 139 135 128 127 135 130 150 169 169 161 161 158 156 161 163 165 170 178 191 217 233 230 231 238 258 265 252 237 240 235 220 208 202 199 192 188 185 176
121 128 128 130 139 132 132 137 138 143 145 143 141 142 144 148 134 127 124 134 138 137 159 164 171 171 166 172 164 154 153 155 162 178 193 210 237 222 235 248 261 264 262 240 224 215 193 197 206 200 196 188 185 177
116 128 134 133 140 144 139 137 134 140 151 138 133 135 134 128 107 118 141 140 141 154 149 159 162 173 167 170 165 158 168 171 173 177 191 222 225 210 233 259 272 275 261 238 224 210 195 194 196 197 198 191 182 183
122 119 126 136 139 144 140 136 137 129 134 132 131 122 132 129 136 151 157 159 156 161 161 163 161 168 168 165 172 170 174 172 159 181 213 242 242 229 252 273 278 278 260 212 201 201 202 192 191 192 193 192 184 184
130 135 136 140 140 141 146 136 134 140 141 129 100 120 135 150 154 154 156 166 169 163 160 161 164 153 164 161 153 164 171 166 185 202 230 248 244 247 240 236 225 216 192 174 167 169 181 187 184 187 195 195 190 184
138 141 140 136 141 147 148 134 143 141 140 134 121 128 153 145 144 147 144 149 152 154 157 151 163 169 168 169 177 158 174 183 194 205 248 217 227 237 232 214 195 186 168 173 177 180 186 191 190 189 193 197 194 186
134 145 147 148 148 147 144 147 153 151 132 102 110 130 139 141 148 146 149 152 159 161 171 169 168 158 173 164 164 165 170 184 189 203 227 214 209 211 208 199 192 187 174 179 189 204 205 198 195 196 195 196 192 190
132 148 153 149 150 148 147 147 142 141 82 106 113 109 123 149 156 159 157 167 170 169 170 161 146 153 151 161 161 175 189 170 200 220 209 191 194 204 198 192 191 193 195 199 207 216 219 216 211 211 212 210 202 195
127 137 149 153 152 154 157 157 141 105 117 118 111 94 104 149 161 164 159 169 172 173 176 169 153 167 162 174 185 178 181 180 179 174 166 157 143 140 175 181 186 194 201 209 221 227 224 222 218 217 217 216 208 205
135 129 136 153 160 156 158 159 152 132 139 148 149 133 123 149 158 158 164 168 174 177 177 174 190 190 189 190 173 159 163 166 155 139 130 138 149 138 138 158 175 191 204 211 213 215 216 217 217 219 219 215 211 212
144 145 132 135 154 165 147 164 174 164 174 170 170 168 154 154 160 169 169 167 171 188 202 211 232 192 187 166 162 162 161 153 142 132 126 117 112 114 152 185 198 202 212 216 219 224 224 225 230 229 226 219 216 217
115 117 127 146 156 155 143 158 162 157 167 170 168 161 166 172 180 183 187 198 205 211 199 195 187 193 187 164 159 157 151 143 135 126 117 103 83 64 259 241 239 237 234 236 240 242 239 233 228 226 226 222 217 221
133 133 122 123 157 149 138 150 155 149 154 150 150 154 161 167 175 185 194 199 206 212 214 218 202 177 175 170 170 168 154 145 134 131 127 101 347 306 289 279 256 243 240 243 245 241 237 236 231 225 216 210 216 225
120 136 158 156 105 106 132 136 133 133 138 150 149 149 151 151 153 151 158 173 188 191 191 195 199 198 194 195 199 201 201 212 212 204 197 314 317 307 299 289 269 252 247 251 251 238 227 224 223 223 218 214 223 233
121 136 132 119 122 133 152 144 140 138 142 145 144 142 148 154 160 168 184 188 197 212 217 213 212 215 218 221 226 230 232 234 235 242 252 270 290 295 295 281 267 259 254 258 258 242 227 221 221 224 225 223 226 234
123 88 95 93 109 153 158 163 162 154 164 158 154 155 155 158 177 190 195 195 202 215 232 233 230 228 233 238 243 245 247 248 249 253 259 266 272 280 284 279 270 263 261 258 256 246 235 231 229 231 235 237 239 243
96 65 76 104 128 146 157 170 180 179 180 186 189 186 186 192 207 189 174 179 210 243 253 255 250 242 240 250 255 255 253 250 247 251 257 261 267 274 277 277 274 265 253 249 249 242 234 230 228 230 233 237 240 246
127 94 70 91 127 156 160 173 173 179 185 183 187 186 188 196 195 188 182 205 277 262 277 288 274 252 239 244 251 246 249 251 248 250 256 262 267 271 274 273 268 259 251 244 240 235 231 227 225 227 231 234 241 252
154 124 60 38 73 184 176 168 177 189 195 186 188 187 192 202 195 191 212 225 189 148 94 52 47 50 56 236 242 240 244 252 256 260 261 259 262 266 268 268 268 257 243 238 238 239 233 226 224 225 232 238 246 255
219 255 294 322 265 210 199 199 193 193 198 205 206 212 218 210 205 194 174 159 165 162 142 112 89 70 47 3 316 204 84 49 13 310 287 284 285 278 275 274 267 260 251 243 240 236 234 232 232 235 240 248 260 267
255 269 271 266 242 227 218 213 207 201 211 214 221 229 213 203 202 204 200 190 186 181 176 165 131 64 22 10 352 316 288 298 340 344 330 323 312 295 286 280 273 267 264 260 254 246 240 240 243 248 255 262 268 272
254 255 263 242 224 217 220 215 218 223 226 228 227 221 214 214 216 220 221 223 229 236 240 247 258 268 283 298 297 295 293 295 294 298 305 306 299 296 289 282 279 276 272 266 258 251 249 250 254 260 266 270 273 274
238 234 240 240 233 220 221 226 225 223 222 224 224 223 219 226 232 236 236 242 250 259 264 267 269 271 274 278 283 287 290 291 287 285 283 281 282 282 283 286 285 279 273 269 266 262 259 259 261 265 269 271 271 272
264 252 227 233 238 234 232 238 238 242 240 239 241 245 248 248 251 255 255 256 261 265 268 270 271 273 275 276 278 280 281 281 280 278 275 274 273 275 279 281 281 277 275 273 269 265 262 261 263 268 270 269 268 270